Weather History for Rock Springs, WY

Change the Weather History Date:

Tuesday, November 19, 2013

  Actual Average Record
Temperature  
Mean Temperature 34 °F 29 °F  
Max Temperature 43 °F 38 °F 61 °F (2007)
Min Temperature 25 °F 20 °F 1 °F (1977)
Degree Days  
Heating Degree Days 31 36  
Month to date heating degree days 558 596  
Since 1 July heating degree days 1499 1563  
Cooling Degree Days 0 0  
Month to date cooling degree days 0 0  
Year to date cooling degree days 517 286  
Moisture  
Dew Point 26 °F    
Average Humidity 71    
Maximum Humidity 89    
Minimum Humidity 53    
Precipitation  
Precipitation 0.00 in 0.02 in 0.29 in (1977)
Month to date precipitation 0.01 0.34  
Year to date precipitation 4.44 7.91  
Sea Level Pressure  
Sea Level Pressure 29.92 in    
Wind  
Wind Speed 12 mph (WSW)    
Max Wind Speed 29 mph    
Max Gust Speed 34 mph    
Visibility 10 miles    
Events      
T = Trace of Precipitation, MM = Missing Value Source: NWS Daily Summary

Daily Weather History Graph

Daily Weather History Graph

Search for Another Location

Airport:

Trip Planner

Search our weather history database for the weather conditions in past years. The results will help you decide how hot, cold, wet, or windy it might be!

Date:

Astronomy

Nov. 19, 2013 Rise Set
Actual Time 7:10 AM MST 4:52 PM MST
Civil Twilight 6:40 AM MST 5:22 PM MST
Nautical Twilight 6:06 AM MST 5:56 PM MST
Astronomical Twilight 5:33 AM MST 6:29 PM MST
Moon 6:46 PM MST (11/19) 8:52 AM MST (11/19)
Length of Visible Light 10h 42m
Length of Day
9h 42m
Waning Gibbous, 96% of the Moon is Illuminated
Nov 19
Waning Gibbous
Nov 25
Last Quarter
Dec 2
New
Dec 9
First Quarter
Dec 17
Full

Hourly Weather History & Observations

Time (MST) Temp. Windchill Dew Point Humidity Pressure Visibility Wind Dir Wind Speed Gust Speed Precip Events Conditions
12:54 AM 28.0 °F 22.8 °F 19.9 °F 72% 29.99 in 10.0 mi ENE 4.6 mph - N/A   Clear
1:54 AM 27.0 °F 18.0 °F 19.9 °F 75% 29.94 in 10.0 mi South 9.2 mph - N/A   Clear
2:54 AM 28.9 °F - 21.0 °F 72% 29.91 in 10.0 mi Calm Calm - N/A   Clear
3:54 AM 27.0 °F - 19.9 °F 75% 29.92 in 10.0 mi Calm Calm - N/A   Clear
4:54 AM 26.1 °F 21.9 °F 21.0 °F 81% 29.94 in 10.0 mi NW 3.5 mph - N/A   Clear
5:54 AM 28.0 °F 24.2 °F 19.9 °F 72% 29.94 in 10.0 mi WNW 3.5 mph - N/A   Partly Cloudy
6:54 AM 25.0 °F 15.5 °F 19.9 °F 81% 29.97 in 10.0 mi South 9.2 mph - N/A   Partly Cloudy
7:54 AM 30.9 °F 22.8 °F 23.0 °F 72% 29.95 in 10.0 mi SW 9.2 mph - N/A   Clear
8:54 AM 33.1 °F 26.1 °F 24.1 °F 70% 29.97 in 10.0 mi SSW 8.1 mph - N/A   Overcast
9:54 AM 37.0 °F 30.4 °F 26.1 °F 65% 29.93 in 10.0 mi SW 9.2 mph - N/A   Clear
10:54 AM 39.9 °F 32.9 °F 26.1 °F 58% 29.91 in 10.0 mi West 11.5 mph - N/A   Mostly Cloudy
11:54 AM 39.9 °F 31.4 °F 25.0 °F 55% 29.92 in 10.0 mi West 16.1 mph - N/A   Mostly Cloudy
12:54 PM 42.1 °F 36.6 °F 27.0 °F 55% 29.90 in 10.0 mi West 9.2 mph - N/A   Scattered Clouds
1:54 PM 41.0 °F 33.1 °F 30.0 °F 65% 29.91 in 10.0 mi WNW 15.0 mph - N/A   Mostly Cloudy
2:54 PM 41.0 °F 32.5 °F 30.0 °F 65% 29.88 in 10.0 mi WSW 17.3 mph - N/A   Overcast
3:54 PM 39.9 °F 30.2 °F 30.0 °F 68% 29.90 in 10.0 mi West 20.7 mph 26.5 mph N/A   Overcast
4:54 PM 37.0 °F 26.4 °F 30.9 °F 79% 29.93 in 10.0 mi West 20.7 mph - N/A   Mostly Cloudy
5:54 PM 35.1 °F 24.8 °F 30.9 °F 85% 29.93 in 10.0 mi WSW 17.3 mph - N/A   Overcast
6:54 PM 35.1 °F 26.4 °F 30.9 °F 85% 29.97 in 10.0 mi WSW 12.7 mph - N/A   Overcast
7:54 PM 35.1 °F 24.8 °F 30.9 °F 85% 29.93 in 10.0 mi West 17.3 mph - N/A   Overcast
8:54 PM 35.1 °F 23.8 °F 30.0 °F 82% 29.90 in 10.0 mi WSW 20.7 mph - N/A   Partly Cloudy
9:54 PM 34.0 °F 22.1 °F 30.0 °F 85% 29.87 in 10.0 mi WSW 21.9 mph 31.1 mph N/A   Partly Cloudy
10:54 PM 34.0 °F 23.8 °F 30.0 °F 85% 29.89 in 10.0 mi SSW 16.1 mph 21.9 mph N/A   Mostly Cloudy
11:54 PM 33.1 °F 21.9 °F 28.9 °F 85% 29.89 in 10.0 mi WSW 18.4 mph - N/A   Partly Cloudy